National Weather Service Raw Text Product

Displaying AFOS PIL: RWRIA Received: 2018-12-06 07:00 UTC


510 
ASUS43 KDMX 060706
RWRIA 

WEATHER ROUNDUP FOR IOWA
NATIONAL WEATHER SERVICE DES MOINES IA
100 AM CST THU DEC 06 2018

NOTE: "FAIR" INDICATES FEW OR NO CLOUDS BELOW 12,000 FEET WITH NO
SIGNIFICANT WEATHER AND/OR OBSTRUCTIONS TO VISIBILITY.

* - THESE STATIONS ARE NOT NWS STATIONS...THUS NOT UNDER NWS
QUALITY CONTROL.  THEY ALSO DO NOT REPORT WEATHER SUCH 
AS PRECIPITATION OR FOG.  

IAZ001>003-012>014-020>022-031>034-043>046-060800-
   NORTHWEST IOWA
  
CITY           SKY/WX    TMP DP  RH WIND       PRES   REMARKS
CARROLL *      CLOUDY    23  23 100 N13       30.18F WCI  11          
CHEROKEE *     CLOUDY    21  18  86 N9        30.23R WCI  11          
DENISON *      CLOUDY    21  18  86 N7        30.21S WCI  13          
LE MARS *      CLOUDY    21  18  86 N15       30.23R WCI   8          
ORANGE CITY *  CLOUDY    21  19  93 N12       30.21R WCI   9          
SHELDON *      FLURRIES  19  18  93 N9        30.21R WCI   9          
SIOUX CITY     CLOUDY    25  20  81 N8        30.24R WCI  16          
SPENCER        CLOUDY    20  13  74 N13       30.21R WCI   7          
STORM LAKE *   CLOUDY    19  18  93 N12       30.19R WCI   7          
$$
 
IAZ055>058-069>071-079>083-090>094-060800-
   SOUTHWEST IOWA
  
CITY           SKY/WX    TMP DP  RH WIND       PRES   REMARKS
ATLANTIC *     CLOUDY    25  21  86 N12       30.17S WCI  14          
AUDUBON *      CLOUDY    23  18  80 N10       30.18R WCI  12          
CLARINDA *     CLOUDY    28  23  80 N10       30.18S WCI  19          
COUNCIL BLFS * CLOUDY    25  23  93 N8        30.18R WCI  16          
CRESTON *      MOCLDY    28  23  80 N13G18    30.14F WCI  18          
HARLAN  *        N/A    N/A N/A N/A MISG        N/A                   
LAMONI         CLOUDY    31  23  72 N10       30.12S WCI  22          
RED OAK *      CLOUDY    27  23  86 N8        30.18R WCI  18          
SHENANDOAH *   CLOUDY    28  23  80 N8        30.19R WCI  20          
$$
 
IAZ047>049-059>061-072>074-084-060800-
   CENTRAL IOWA
  
CITY           SKY/WX    TMP DP  RH WIND       PRES   REMARKS
AMES           CLOUDY    25  20  81 N15       30.17R WCI  13          
ANKENY *       CLOUDY    27  21  80 N12       30.18R WCI  16          
BOONE *        CLOUDY    23  23 100 N17       30.15S WCI   9          
CHARITON *     CLOUDY    28  23  80 NW8       30.14R WCI  20          
DES MOINES     CLOUDY    27  20  75 N13G20    30.16R WCI  16          
GRINNELL*      CLEAR     26  22  87 NW10      30.13F WCI  15          
KNOXVILLE *    CLOUDY    28  27  93 N13       30.13S WCI  18          
MARSHALLTOWN   PTCLDY    24  21  88 NW10      30.15R WCI  14          
NEWTON *       PTCLDY    27  23  86 N13       30.15R WCI  16          
PELLA *        PTCLDY    28  23  81 NW8       30.16R WCI  20          
PERRY *        FAIR      23  20  89 N17       30.18R WCI   9          
$$
 
IAZ004>006-015-016-023>025-035-036-060800-
   NORTH CENTRAL IOWA
  
CITY           SKY/WX    TMP DP  RH WIND       PRES   REMARKS
ALGONA *       CLOUDY    19  16  86 N15       30.17R WCI   5          
CLARION *      CLOUDY    23  18  80 N16       30.17R WCI  10          
ESTHERVILLE    CLOUDY    18  12  77 N10       30.19R WCI   6          
FORT DODGE *   CLOUDY    22  17  81 N10       30.19R WCI  11          
MASON CITY     MOCLDY    20  14  77 N21       30.16R WCI   4          
FOREST CITY *  CLOUDY    23  18  80 N15       30.16S WCI  10          
WEBSTER CITY * CLOUDY    23  18  80 N18       30.16R WCI   9          
IOWA FALLS *   CLOUDY    26  22  86 NW21      30.16R WCI  11          
$$

IAZ007>011-017>019-026>030-037>042-050>054-066-060800-
   NORTHEAST IOWA
  
CITY           SKY/WX    TMP DP  RH WIND       PRES   REMARKS
CEDAR RAPIDS   FAIR      26  22  84 NW13      30.10S WCI  15          
CHARLES CITY * CLOUDY    23  18  80 NW17      30.13S WCI   9          
CLINTON *      FAIR      28  25  88 W9        30.09F WCI  19          
DECORAH *      CLOUDY    25  23  93 NW5       30.09R WCI  19          
DUBUQUE        FAIR      26  22  84 NW13      30.07S WCI  15          
MONTICELLO *   FAIR      27  23  86 NW13      30.10S WCI  16          
WATERLOO       FAIR      24  20  84 NW10      30.13R WCI  14          
$$
 
IAZ064-065-067-068-078-060800-
   EAST CENTRAL IOWA
  
CITY           SKY/WX    TMP DP  RH WIND       PRES   REMARKS
DAVENPORT      FAIR      30  25  81 W7        30.11F WCI  23          
IOWA CITY      FAIR      30  22  72 NW13G18   30.13S WCI  20          
MT. PLEASANT * CLOUDY    32  30  93 W5        30.13S WCI  27          
MUSCATINE *    FAIR      32  25  74 W8        30.12F WCI  25          
QUAD CITIES    FAIR      32  27  81 W7        30.09F WCI  26          
$$
 
IAZ062-063-075>077-085>089-095>099-060800-
   SOUTHEAST IOWA
  
CITY           SKY/WX    TMP DP  RH WIND       PRES   REMARKS
BURLINGTON     CLOUDY    35  26  69 NW8       30.12R WCI  29          
FAIRFIELD *    CLOUDY    32  25  74 W7        30.12R WCI  26          
FORT MADISON * CLOUDY    36  28  75 NW10      30.13R WCI  28          
KEOKUK *       CLOUDY    36  28  75 SW10      30.11F WCI  28          
OSKALOOSA *    FAIR      28  24  83 NW8       30.14R WCI  20          
CENTERVILLE *  FAIR      32  27  80 CALM      30.14S                  
OTTUMWA        MOCLDY    30  23  75 NW12      30.13R WCI  20          
WASHINGTON *   PTCLDY    30  28  93 NW9       30.13R WCI  22          
$$

ABBREVIATIONS USED IN REMARKS
   TC - TEMPERATURES IN CELSIUS
  WCI - WIND CHILL INDEX
   HX - HEAT INDEX
  VSB - VISIBILITY  
$$

  

811 
ASUS43 KDMX 060701
RWRIA 

WEATHER ROUNDUP FOR IOWA
NATIONAL WEATHER SERVICE DES MOINES IA
100 AM CST THU DEC 06 2018

NOTE: "FAIR" INDICATES FEW OR NO CLOUDS BELOW 12,000 FEET WITH NO
SIGNIFICANT WEATHER AND/OR OBSTRUCTIONS TO VISIBILITY.

* - THESE STATIONS ARE NOT NWS STATIONS...THUS NOT UNDER NWS
QUALITY CONTROL.  THEY ALSO DO NOT REPORT WEATHER SUCH 
AS PRECIPITATION OR FOG.  

IAZ001>003-012>014-020>022-031>034-043>046-060800-
   NORTHWEST IOWA
  
CITY           SKY/WX    TMP DP  RH WIND       PRES   REMARKS
CARROLL *      CLOUDY    23  23 100 N13       30.18F WCI  11          
CHEROKEE *     CLOUDY    21  18  86 N9        30.23R WCI  11          
DENISON *      CLOUDY    21  18  86 N7        30.21S WCI  13          
LE MARS *      CLOUDY    21  18  86 N15       30.23R WCI   8          
ORANGE CITY *  CLOUDY    21  19  93 N12       30.21R WCI   9          
SHELDON *      FLURRIES  19  18  93 N9        30.21R WCI   9          
SIOUX CITY     CLOUDY    25  20  81 N8        30.24R WCI  16          
SPENCER        CLOUDY    20  13  74 N13       30.21R WCI   7          
STORM LAKE *   CLOUDY    19  18  93 N12       30.19R WCI   7          
$$
 
IAZ055>058-069>071-079>083-090>094-060800-
   SOUTHWEST IOWA
  
CITY           SKY/WX    TMP DP  RH WIND       PRES   REMARKS
ATLANTIC *     CLOUDY    25  21  86 N12       30.17S WCI  14          
AUDUBON *      CLOUDY    23  18  80 N10       30.18R WCI  12          
CLARINDA *     CLOUDY    28  23  80 N10       30.18S WCI  19          
COUNCIL BLFS * CLOUDY    25  23  93 N8        30.18R WCI  16          
CRESTON *      MOCLDY    28  23  80 N13G18    30.14F WCI  18          
HARLAN  *        N/A    N/A N/A N/A MISG        N/A                   
LAMONI         CLOUDY    31  23  72 N10       30.12S WCI  22          
RED OAK *      CLOUDY    27  23  86 N8        30.18R WCI  18          
SHENANDOAH *   CLOUDY    28  23  80 N8        30.19R WCI  20          
$$
 
IAZ047>049-059>061-072>074-084-060800-
   CENTRAL IOWA
  
CITY           SKY/WX    TMP DP  RH WIND       PRES   REMARKS
AMES           CLOUDY    25  20  81 N15       30.17R WCI  13          
ANKENY *       CLOUDY    27  21  80 N12       30.18R WCI  16          
BOONE *        CLOUDY    23  23 100 N17       30.15S WCI   9          
CHARITON *     CLOUDY    28  23  80 NW8       30.14R WCI  20          
DES MOINES     CLOUDY    27  20  75 N13G20    30.16R WCI  16          
GRINNELL*      CLEAR     26  22  87 NW10      30.13F WCI  15          
KNOXVILLE *    CLOUDY    28  27  93 N13       30.13S WCI  18          
MARSHALLTOWN   PTCLDY    24  21  88 NW10      30.15R WCI  14          
NEWTON *       PTCLDY    27  23  86 N13       30.15R WCI  16          
PELLA *        PTCLDY    28  23  81 NW8       30.16R WCI  20          
PERRY *        FAIR      23  20  89 N17       30.18R WCI   9          
$$
 
IAZ004>006-015-016-023>025-035-036-060800-
   NORTH CENTRAL IOWA
  
CITY           SKY/WX    TMP DP  RH WIND       PRES   REMARKS
ALGONA *       CLOUDY    19  16  86 N15       30.17R WCI   5          
CLARION *      CLOUDY    23  18  80 N16       30.17R WCI  10          
ESTHERVILLE    CLOUDY    18  12  77 N10       30.19R WCI   6          
FORT DODGE *   CLOUDY    22  17  81 N10       30.19R WCI  11          
MASON CITY     MOCLDY    20  14  77 N21       30.16R WCI   4          
FOREST CITY *  CLOUDY    23  18  80 N15       30.16S WCI  10          
IOWA FALLS *   CLOUDY    26  22  86 NW21      30.16R WCI  11          
$$

IAZ007>011-017>019-026>030-037>042-050>054-066-060800-
   NORTHEAST IOWA
  
CITY           SKY/WX    TMP DP  RH WIND       PRES   REMARKS
CEDAR RAPIDS   FAIR      26  22  84 NW13      30.10S WCI  15          
CHARLES CITY * CLOUDY    23  18  80 NW17      30.13S WCI   9          
CLINTON *      FAIR      28  25  88 W9        30.09F WCI  19          
DECORAH *      CLOUDY    25  23  93 NW5       30.09R WCI  19          
DUBUQUE        FAIR      26  22  84 NW13      30.07S WCI  15          
MONTICELLO *   FAIR      27  23  86 NW13      30.10S WCI  16          
WATERLOO       FAIR      24  20  84 NW10      30.13R WCI  14          
$$
 
IAZ064-065-067-068-078-060800-
   EAST CENTRAL IOWA
  
CITY           SKY/WX    TMP DP  RH WIND       PRES   REMARKS
DAVENPORT      FAIR      30  25  81 W7        30.11F WCI  23          
IOWA CITY      FAIR      30  22  72 NW13G18   30.13S WCI  20          
MT. PLEASANT * CLOUDY    32  30  93 W5        30.13S WCI  27          
MUSCATINE *    FAIR      32  25  74 W8        30.12F WCI  25          
QUAD CITIES    FAIR      32  27  81 W7        30.09F WCI  26          
$$
 
IAZ062-063-075>077-085>089-095>099-060800-
   SOUTHEAST IOWA
  
CITY           SKY/WX    TMP DP  RH WIND       PRES   REMARKS
BURLINGTON     CLOUDY    35  26  69 NW8       30.12R WCI  29          
FAIRFIELD *    CLOUDY    32  25  74 W7        30.12R WCI  26          
FORT MADISON * CLOUDY    36  28  75 NW10      30.13R WCI  28          
KEOKUK *       CLOUDY    36  28  75 SW10      30.11F WCI  28          
OSKALOOSA *    FAIR      28  24  83 NW8       30.14R WCI  20          
OTTUMWA        MOCLDY    30  23  75 NW12      30.13R WCI  20          
WASHINGTON *   PTCLDY    30  28  93 NW9       30.13R WCI  22          
$$

ABBREVIATIONS USED IN REMARKS
   TC - TEMPERATURES IN CELSIUS
  WCI - WIND CHILL INDEX
   HX - HEAT INDEX
  VSB - VISIBILITY  
$$